View from above orbital plane
|
View from above satellite
|
Ground track
|
The orbit data is extracted from the following two-line orbital elements,
1 22828U 93061F 13138.84333295 .00000169 00000-0 82451-4 0 3336
2 22828 098.6033 082.9535 0009346 345.7454 072.7196 14.30118259992881
| Epoch (UTC): | 18 May 2013 20:14:23 |
| Eccentricity: | 0.0009346 |
| inclination: | 98.6033° |
| perigee height: | 784 km |
| apogee height: | 798 km |
| right ascension of ascending node: | 82.9535° |
| argument of perigee: | 345.7454° |
| revolutions per day: | 14.30118259 |
| mean anomaly at epoch: | 72.7196° |
| orbit number at epoch: | 99288 |
The dashed part of the orbit path shows where the satellite is in the earth's shadow,
|
|